Regional Weather Roundup
Issued by NWS

Home | Current Version | Previous Version | Text Only | Print | Product List | Glossary Off
Versions: 1 2 3 4 5 6 7 8 9 10 11 12 13 14 15 16 17 18 19 20 21 22 23 24 25 26 27 28 29 30 31 32 33 34 35 36 37 38 39 40 41 42 43 44 45 46 47 48 49 50

000
ASUS43 KTOP 040059
RWRKS

WEATHER ROUNDUP FOR KANSAS
NATIONAL WEATHER SERVICE GOODLAND KS
800 PM CDT FRI JUL 03 2015

NOTE:  "FAIR" INDICATES FEW OR NO CLOUDS BELOW 12,000 FEET WITH NO
SIGNIFICANT WEATHER AND/OR OBSTRUCTIONS TO VISIBILITY.

KSZ001>006-013>018-027>032-041>047-040200-
NORTHWEST KANSAS

CITY           SKY/WX    TMP DP  RH WIND       PRES   REMARKS
GOODLAND       MOSUNNY   83  53  35 E9        30.00S
HAYS           SUNNY     82  57  42 E5        29.96R
HILL CITY      SUNNY     82  57  42 E10       29.97R HAZE
RUSSELL        SUNNY     80  61  52 E7        29.94S
$$

KSZ061>065-074>080-084>089-040200-
SOUTHWEST KANSAS

CITY           SKY/WX    TMP DP  RH WIND       PRES   REMARKS
DODGE CITY     MOSUNNY   80  58  46 E12       29.98S
ELKHART          N/A     78  58  50 SE16        N/A
GARDEN CITY    SUNNY     77  63  61 SE8       29.98S
GREAT BEND     MOSUNNY   81  63  54 E10       29.96S
LIBERAL        MOSUNNY   81  64  57 S5        30.00
$$

KSZ066>073-081>083-090>101-040200-
SOUTHEAST KANSAS

CITY           SKY/WX    TMP DP  RH WIND       PRES   REMARKS
CHANUTE        CLEAR     78  66  66 NE6       29.92R
COFFEYVILLE    CLEAR     80  68  66 E8        29.89R
HUTCHINSON     PTCLDY    80  62  54 E5        29.94S
MEDICINE LODGE   N/A     83  61  47 E9        29.92S
NEWTON         CLEAR     77  61  57 NE6       29.97S
PARSONS        PTCLDY    80  69  69 VRB3      29.91S
WICHITA INTL   CLEAR     81  63  54 NE8       29.93S
WICHITA JABRA  CLEAR     78  64  61 E8        29.93S
WINFIELD       CLEAR     82  64  54 NE13      29.93R
$$

KSZ007>012-019>026-033>040-048>060-102>105-040200-
NORTHEAST KANSAS

CITY           SKY/WX    TMP DP  RH WIND       PRES   REMARKS
CONCORDIA      CLEAR     76  62  62 E8        29.95F
EMPORIA        CLEAR     76  63  64 NE9       29.94R
LAWRENCE       CLEAR     75  62  64 N3        29.93F
MANHATTAN      PTCLDY    78  59  51 NE9       29.94S
OLATHE IND     CLEAR     74  60  61 N7        29.94S
OLATHE EXE     CLEAR     75  54  47 NE7       29.93S
SALINA         CLEAR     82  60  47 E8        29.94R
TOPEKA BILLARD CLEAR     76  59  55 NE5       29.94S
TOPEKA FORBES    N/A    N/A N/A N/A MISG      29.94S
$$



USA.gov is the U.S. government's official web portal to all federal, state and local government web resources and services.